TimeCDT,TemperatureF,Dew PointF,Humidity,Sea Level PressureIn,VisibilityMPH,Wind Direction,Wind SpeedMPH,Gust SpeedMPH,PrecipitationIn,Events,Conditions,WindDirDegrees,DateUTC
12:56 AM,42.1,28.9,60,29.77,10.0,SE,9.2,-,N/A,,Overcast,140,2013-10-20 05:56:00
1:56 AM,42.1,28.9,60,29.75,10.0,SSE,8.1,-,N/A,,Overcast,150,2013-10-20 06:56:00
2:56 AM,42.1,30.0,62,29.74,10.0,SE,6.9,-,N/A,,Overcast,140,2013-10-20 07:56:00
3:56 AM,42.1,30.9,65,29.70,10.0,SSE,6.9,-,N/A,,Overcast,150,2013-10-20 08:56:00
4:56 AM,42.1,32.0,67,29.68,10.0,SSE,5.8,-,N/A,,Overcast,160,2013-10-20 09:56:00
5:56 AM,41.0,33.1,73,29.68,10.0,SSE,4.6,-,N/A,,Overcast,160,2013-10-20 10:56:00
6:56 AM,41.0,34.0,76,29.67,10.0,South,5.8,-,N/A,,Overcast,190,2013-10-20 11:56:00
7:56 AM,43.0,36.0,76,29.67,10.0,Variable,3.5,-,N/A,,Overcast,0,2013-10-20 12:56:00
8:56 AM,46.0,37.9,73,29.70,10.0,West,8.1,-,N/A,,Mostly Cloudy,280,2013-10-20 13:56:00
9:56 AM,50.0,39.0,66,29.70,10.0,WNW,12.7,20.7,N/A,,Scattered Clouds,290,2013-10-20 14:56:00
10:56 AM,53.1,39.0,59,29.71,10.0,NW,19.6,29.9,N/A,,Mostly Cloudy,310,2013-10-20 15:56:00
11:56 AM,52.0,39.0,61,29.73,10.0,WNW,18.4,28.8,N/A,,Mostly Cloudy,300,2013-10-20 16:56:00
12:56 PM,50.0,39.0,66,29.75,10.0,WNW,18.4,24.2,N/A,,Overcast,290,2013-10-20 17:56:00
1:56 PM,50.0,39.9,68,29.75,10.0,WNW,15.0,28.8,N/A,,Overcast,290,2013-10-20 18:56:00
2:44 PM,48.2,41.0,76,29.74,10.0,WNW,17.3,26.5,N/A,,Overcast,300,2013-10-20 19:44:00
2:54 PM,48.2,41.0,76,29.75,10.0,WNW,16.1,28.8,N/A,,Overcast,300,2013-10-20 19:54:00
2:56 PM,48.0,41.0,77,29.78,10.0,WNW,15.0,28.8,N/A,,Overcast,300,2013-10-20 19:56:00
3:16 PM,48.2,39.2,71,29.76,10.0,WNW,15.0,31.1,N/A,,Overcast,300,2013-10-20 20:16:00
3:56 PM,46.9,37.9,71,29.81,10.0,WNW,15.0,28.8,N/A,,Overcast,300,2013-10-20 20:56:00
4:56 PM,44.1,36.0,73,29.85,10.0,NW,17.3,31.1,N/A,,Overcast,320,2013-10-20 21:56:00
5:56 PM,42.1,34.0,73,29.91,10.0,NNW,16.1,26.5,N/A,,Overcast,330,2013-10-20 22:56:00
6:56 PM,39.9,33.1,77,29.94,10.0,NNW,15.0,24.2,N/A,,Overcast,330,2013-10-20 23:56:00
7:23 PM,39.2,32.0,75,29.93,10.0,NNW,10.4,20.7,N/A,,Overcast,340,2013-10-21 00:23:00
7:56 PM,39.0,33.1,79,29.98,10.0,NW,10.4,-,N/A,,Overcast,320,2013-10-21 00:56:00
8:13 PM,39.2,33.8,81,29.95,10.0,NNW,11.5,20.7,0.00,Rain,Light Rain,340,2013-10-21 01:13:00
8:56 PM,37.0,34.0,89,30.00,9.0,NNW,16.1,24.2,0.01,Rain,Light Rain,330,2013-10-21 01:56:00
9:07 PM,37.4,33.8,87,29.97,10.0,NW,10.4,-,0.00,,Overcast,320,2013-10-21 02:07:00
9:56 PM,37.9,33.1,83,30.01,10.0,NW,8.1,-,0.00,,Overcast,320,2013-10-21 02:56:00
10:50 PM,37.4,32.0,81,29.99,10.0,NW,9.2,-,N/A,,Overcast,320,2013-10-21 03:50:00
10:56 PM,37.9,33.1,83,30.01,10.0,NW,10.4,-,N/A,,Overcast,320,2013-10-21 03:56:00
11:25 PM,37.4,30.2,75,30.00,10.0,North,11.5,-,N/A,,Mostly Cloudy,350,2013-10-21 04:25:00
11:56 PM,36.0,28.9,76,30.04,10.0,NNW,11.5,-,N/A,,Mostly Cloudy,340,2013-10-21 04:56:00